Greenville, MS

1:46 PM CDT on March 26, 2017 (GMT -0500)
Mid Delta Regional

Weather History for KGLH - March, 2014

Change the Weather History Date:

Monday, March 10, 2014

  Actual Average Record
Temperature  
Mean Temperature 52 °F 53 °F  
Max Temperature 67 °F 64 °F 85 °F (1986)
Min Temperature 37 °F 43 °F 20 °F (1932)
Degree Days  
Heating Degree Days 13 12  
Month to date heating degree days 205 133  
Since 1 July heating degree days 2812 2442  
Cooling Degree Days 0 0  
Month to date cooling degree days 0 0  
Year to date cooling degree days 0 5  
Growing Degree Days 2 (Base 50)    
Moisture  
Dew Point 44 °F    
Average Humidity 76    
Maximum Humidity 100    
Minimum Humidity 52    
Precipitation  
Precipitation 0.00 in 0.13 in 3.33 in (2016)
Month to date precipitation 0.95 1.32  
Year to date precipitation 5.25 11.31  
Sea Level Pressure  
Sea Level Pressure 30.12 in    
Wind  
Wind Speed 5 mph (SW)    
Max Wind Speed 13 mph    
Max Gust Speed 16 mph    
Visibility 3 miles    
Events Fog    
T = Trace of Precipitation, MM = Missing Value Source: NWS Daily Summary

Daily Weather History Graph

Daily Weather History Graph

Search for Another Location

Airport or City:

Trip Planner

Search our weather history database for the weather conditions in past years. The results will help you decide how hot, cold, wet, or windy it might be!

Date:

Astronomy

Mar. 10, 2014 Rise Set
Actual Time 7:20 AM CDT 7:07 PM CDT
Civil Twilight 6:56 AM CDT 7:32 PM CDT
Nautical Twilight 6:27 AM CDT 8:01 PM CDT
Astronomical Twilight 5:58 AM CDT 8:30 PM CDT
Moon 2:03 PM CDT (3/10) 3:21 AM CDT (3/10)
Length of Visible Light 12h 36m
Length of Day
11h 47m
Waxing Gibbous, 70% of the Moon is Illuminated
Mar 10
Waxing Gibbous
Mar 16
Full
Mar 23
Last Quarter
Mar 30
New
Apr 7
First Quarter

Hourly Weather History & Observations

Time (CDT) Temp. Windchill Dew Point Humidity Pressure Visibility Wind Dir Wind Speed Gust Speed Precip Events Conditions
12:01 AM 42.8 °F - 41.0 °F 93% 30.20 in 1.2 mi Calm Calm - N/A   Partly Cloudy
12:11 AM 42.8 °F - 41.0 °F 93% 30.20 in 3.0 mi Calm Calm - N/A   Clear
12:22 AM 42.8 °F - 41.0 °F 93% 30.20 in 2.5 mi Calm Calm - N/A   Clear
1:35 AM 42.8 °F - 39.2 °F 87% 30.18 in 3.0 mi Calm Calm - N/A   Clear
1:43 AM 41.0 °F - 39.2 °F 93% 30.17 in 0.8 mi Calm Calm - N/A   Clear
1:53 AM 42.1 °F - 39.9 °F 92% 30.19 in 1.0 mi Calm Calm - N/A   Clear
2:00 AM 41.0 °F - 39.2 °F 93% 30.17 in 0.8 mi Calm Calm - N/A   Clear
2:09 AM 41.0 °F - 41.0 °F 100% 30.17 in 1.8 mi Calm Calm - N/A   Clear
2:16 AM 39.2 °F - 39.2 °F 100% 30.17 in 2.0 mi Calm Calm - N/A   Clear
2:23 AM 39.2 °F 35.9 °F 37.4 °F 93% 30.17 in 1.8 mi SW 4.6 mph - N/A   Clear
2:31 AM 39.2 °F 35.9 °F 37.4 °F 93% 30.16 in 3.0 mi SSW 4.6 mph - N/A   Clear
2:41 AM 39.2 °F 35.0 °F 37.4 °F 93% 30.16 in 2.5 mi SSW 5.8 mph - N/A   Clear
2:53 AM 37.9 °F 34.4 °F 37.0 °F 97% 30.17 in 1.8 mi SSW 4.6 mph - N/A   Clear
3:06 AM 39.2 °F - 37.4 °F 93% 30.14 in 2.0 mi Calm Calm - N/A   Clear
3:24 AM 39.2 °F - 39.2 °F 100% 30.14 in 1.8 mi Calm Calm - N/A   Clear
3:40 AM 39.2 °F - 37.4 °F 93% 30.14 in 2.5 mi Calm Calm - N/A   Clear
3:44 AM 39.2 °F - 37.4 °F 93% 30.14 in 0.8 mi Calm Calm - N/A   Clear
3:53 AM 39.9 °F - 37.9 °F 93% 30.16 in 0.2 mi Calm Calm - N/A Fog Fog
4:00 AM 39.2 °F - 37.4 °F 93% 30.13 in 0.2 mi Calm Calm - N/A Fog Fog
4:53 AM 39.0 °F - 37.9 °F 96% 30.15 in 0.2 mi Calm Calm - N/A Fog Fog
5:31 AM 37.4 °F 34.9 °F 37.4 °F 100% 30.13 in 1.0 mi North 3.5 mph - N/A   Mist
5:48 AM 39.2 °F - 37.4 °F 93% 30.14 in 0.5 mi Calm Calm - N/A Fog Fog
5:53 AM 39.0 °F - 37.9 °F 96% 30.16 in 0.2 mi Calm Calm - N/A Fog Fog
6:14 AM 39.2 °F - 39.2 °F 100% 30.14 in 0.5 mi Calm Calm - N/A Fog Fog
6:26 AM 41.0 °F - 39.2 °F 93% 30.13 in 1.2 mi Calm Calm - N/A   Overcast
6:53 AM 42.1 °F - 41.0 °F 96% 30.17 in 1.8 mi Calm Calm - N/A   Overcast
7:03 AM 42.8 °F - 42.8 °F 100% 30.14 in 2.0 mi Calm Calm - N/A   Overcast
7:41 AM 44.6 °F 43.1 °F 44.6 °F 100% 30.15 in 1.5 mi SSW 3.5 mph - N/A   Overcast
7:53 AM 46.0 °F - 44.1 °F 93% 30.17 in 1.5 mi Calm Calm - N/A   Overcast
8:53 AM 48.0 °F - 46.0 °F 93% 30.18 in 1.5 mi SSW 4.6 mph - N/A   Overcast
9:50 AM 51.8 °F - 48.2 °F 88% 30.15 in 1.5 mi SW 4.6 mph - N/A   Overcast
9:53 AM 51.1 °F - 48.9 °F 92% 30.17 in 1.5 mi SW 4.6 mph - N/A   Overcast
10:20 AM 51.8 °F - 48.2 °F 88% 30.14 in 2.0 mi SW 4.6 mph - N/A   Overcast
10:37 AM 53.6 °F - 50.0 °F 88% 30.14 in 2.5 mi SW 5.8 mph - N/A   Overcast
10:46 AM 53.6 °F - 50.0 °F 88% 30.14 in 3.0 mi SW 5.8 mph - N/A   Overcast
10:53 AM 54.0 °F - 50.0 °F 86% 30.16 in 3.0 mi SW 6.9 mph - N/A   Overcast
11:35 AM 57.2 °F - 50.0 °F 77% 30.13 in 6.0 mi West 10.4 mph - N/A   Haze
11:53 AM 57.9 °F - 48.9 °F 72% 30.15 in 6.0 mi WSW 9.2 mph - N/A   Haze
12:03 PM 59.0 °F - 50.0 °F 72% 30.12 in 7.0 mi West 9.2 mph - N/A   Scattered Clouds
12:53 PM 60.1 °F - 50.0 °F 69% 30.12 in 7.0 mi SSW 8.1 mph - N/A   Partly Cloudy
1:53 PM 63.0 °F - 50.0 °F 63% 30.09 in 8.0 mi SW 11.5 mph - N/A   Clear
2:53 PM 64.0 °F - 50.0 °F 60% 30.04 in 8.0 mi SSW 3.5 mph - N/A   Clear
3:53 PM 66.0 °F - 50.0 °F 56% 30.02 in 7.0 mi SSW 8.1 mph - N/A   Clear
4:53 PM 66.9 °F - 50.0 °F 54% 29.99 in 8.0 mi SSW 6.9 mph - N/A   Clear
5:53 PM 66.0 °F - 48.9 °F 54% 29.97 in 8.0 mi SSW 8.1 mph - N/A   Clear
6:53 PM 63.0 °F - 50.0 °F 63% 29.97 in 8.0 mi SSW 9.2 mph - N/A   Clear
7:53 PM 55.9 °F - 48.9 °F 77% 29.96 in 9.0 mi South 8.1 mph - N/A   Clear
8:53 PM 53.1 °F - 48.9 °F 86% 29.97 in 9.0 mi South 9.2 mph - N/A   Clear
9:53 PM 54.0 °F - 50.0 °F 86% 29.95 in 8.0 mi South 6.9 mph - N/A   Clear
10:53 PM 54.0 °F - 50.0 °F 86% 29.94 in 8.0 mi SSW 8.1 mph - N/A   Clear
11:53 PM 53.1 °F - 50.0 °F 89% 29.93 in 7.0 mi Calm Calm - N/A   Clear